Dewpoint
70 69 68 67 65 63 62 62 58 59 56 54 54 54 54 61 60 60 61 62 60 63 59 58 56 57 58 55 55 55 56 56 55 50 55 65 71 69 70 71 70 69 70 71 73 74 74 75 75 75 75 76 76 76 76 76 76 75 75 75 75 76 76 76 76 75 75 75 75 75 75 75 75 75 76 75 75 75 75 75 75 75 75 74 74 75 74 75 74 74 74 74 74 75 75 74 75
66 66 65 65 64 63 60 62 58 57 53 51 52 55 58 60 60 58 58 60 58 57 55 56 59 57 58 57 52 54 55 58 59 62 64 67 67 68 68 70 69 69 69 70 72 71 73 75 75 75 75 75 76 76 76 76 76 76 76 76 76 76 76 75 75 75 75 75 74 74 74 75 76 76 76 75 75 75 75 75 74 74 74 74 74 74 74 75 74 74 74 74 75 75 75 74 74
62 62 63 64 63 62 70 62 56 54 51 53 56 57 59 59 60 60 62 62 58 55 55 55 55 55 56 56 53 53 56 61 60 62 65 68 66 69 69 69 68 71 69 69 70 72 74 75 75 74 74 75 75 75 75 76 76 76 76 75 76 76 75 76 76 76 75 75 75 75 75 75 76 76 75 75 75 75 75 74 74 74 74 74 74 74 74 74 74 74 74 75 75 75 74 74 74
69 63 61 63 60 64 62 62 55 54 55 56 52 58 60 60 61 62 64 60 57 54 55 55 58 60 54 52 54 55 56 58 61 63 64 65 66 68 68 68 70 69 69 70 70 71 73 74 74 74 74 75 76 76 76 76 76 76 76 76 76 76 77 76 76 75 75 75 75 75 76 75 75 75 75 74 74 74 74 74 73 74 74 74 74 74 74 74 75 75 74 75 74 74 74 74 74
66 63 63 62 64 60 60 59 57 60 57 57 55 60 61 62 63 63 62 57 55 56 57 56 59 60 62 60 54 55 57 59 60 62 63 65 67 68 69 69 69 69 70 69 70 71 73 74 74 74 75 76 76 76 76 76 76 75 75 75 76 76 76 76 75 76 76 75 75 74 75 76 75 75 74 74 74 74 74 74 74 74 74 74 74 75 75 74 74 74 74 74 74 73 74 74 74
62 62 64 66 66 66 62 56 56 55 57 61 56 59 61 63 63 62 58 56 59 57 55 55 55 56 58 57 54 55 57 56 58 61 63 64 67 68 68 70 68 69 69 70 70 71 73 75 75 75 75 76 75 76 76 76 76 75 75 76 76 76 76 76 75 75 74 75 75 75 76 75 75 74 74 74 74 74 74 74 73 73 74 74 74 74 74 74 74 75 74 74 73 73 73 73 74
63 62 62 64 63 63 58 56 58 55 58 61 63 61 63 64 64 61 57 56 56 58 58 56 56 55 56 57 58 59 58 59 59 61 63 64 67 67 68 67 70 71 70 70 70 71 74 75 75 75 75 76 75 76 76 75 75 75 75 76 76 76 75 74 74 74 73 74 75 74 75 75 74 74 75 75 74 74 74 74 74 74 74 74 74 74 75 74 74 74 75 74 73 73 73 73 73
64 61 62 58 60 60 58 55 57 58 60 61 62 62 65 65 63 61 58 57 56 57 55 55 55 58 58 57 56 56 58 60 61 61 63 63 64 68 68 69 71 69 70 70 71 73 76 75 75 76 76 76 76 76 75 75 75 75 76 76 76 75 74 73 73 74 74 74 74 74 75 75 74 74 74 74 74 74 74 74 74 74 74 75 75 75 75 75 74 74 74 74 74 73 73 74 73
63 62 69 63 58 61 58 58 57 60 60 63 63 65 66 65 63 60 58 58 57 58 56 56 56 58 56 55 55 59 60 61 61 63 62 62 62 64 69 68 67 68 70 70 72 73 74 76 75 75 76 76 76 76 75 75 75 76 75 76 75 75 74 73 73 74 74 74 74 74 75 74 75 74 74 74 74 74 74 74 75 74 74 73 74 74 74 74 74 74 74 74 74 73 73 73 74
63 63 63 61 60 57 57 55 56 60 61 62 62 65 65 65 65 62 60 58 58 56 58 57 59 60 56 54 56 58 60 61 61 61 61 61 62 63 67 68 68 68 70 69 71 72 73 77 76 76 76 76 76 75 75 75 76 76 76 75 75 75 74 73 73 74 73 73 74 74 74 74 74 74 74 75 74 74 74 74 74 74 74 74 74 74 74 74 75 74 74 74 74 74 74 74 73
66 66 63 61 57 57 55 54 56 59 62 63 63 65 65 65 64 61 63 60 58 58 57 58 57 56 56 57 58 61 62 61 60 59 60 61 63 62 65 69 69 69 69 68 70 71 74 75 77 76 76 75 75 75 75 76 76 76 75 75 75 74 74 73 73 73 73 73 74 74 74 74 74 74 75 74 74 74 74 74 74 74 74 74 74 74 74 74 74 74 74 73 73 73 74 73 74
63 63 64 58 56 54 55 57 59 60 61 63 63 66 66 65 64 60 59 58 56 57 57 57 58 58 56 56 57 60 62 61 60 60 60 61 62 62 63 68 67 69 68 69 69 72 72 75 75 76 76 75 75 75 76 76 76 76 75 75 75 75 74 74 73 73 73 74 73 74 74 74 74 74 74 74 74 74 74 74 74 74 74 74 73 74 74 74 74 74 74 74 73 74 74 74 74
62 63 61 60 57 56 58 58 59 59 61 63 63 66 67 65 64 64 60 59 57 56 58 60 56 55 54 56 59 59 59 60 60 61 61 61 62 62 63 63 66 67 67 67 65 68 71 73 73 75 74 75 75 76 76 75 76 76 75 75 75 75 75 74 73 73 73 73 73 74 74 74 74 74 74 74 74 73 73 74 74 74 74 74 74 74 74 74 74 74 74 75 75 75 74 74 74
62 63 61 57 59 56 56 57 60 58 62 65 64 67 68 64 64 63 62 60 58 58 58 58 58 57 57 57 58 58 60 61 61 61 61 62 62 62 62 62 63 64 64 66 68 70 72 73 73 74 74 76 75 76 75 75 75 75 75 75 75 75 75 74 74 74 73 73 73 74 75 75 75 75 75 75 75 75 74 74 74 74 74 74 73 74 74 74 74 74 74 75 75 74 74 74 74
60 64 64 59 58 59 58 56 57 58 59 63 66 66 64 66 67 66 63 58 59 61 59 60 58 55 54 55 55 56 59 61 61 61 61 62 62 62 63 63 63 64 65 67 68 71 71 72 73 75 75 75 75 75 76 75 75 75 75 75 75 75 74 74 74 73 73 73 73 74 74 74 75 75 74 74 74 74 74 74 74 74 73 74 73 73 74 74 74 74 74 74 74 74 74 74 74
62 63 61 57 57 56 60 60 58 56 60 62 65 65 65 67 69 65 65 61 59 59 57 58 59 56 52 53 55 57 60 61 61 61 62 63 63 63 63 63 63 65 68 68 70 72 72 73 74 74 76 75 75 75 75 75 75 75 75 75 75 75 75 74 73 74 73 73 74 74 74 74 75 74 74 74 74 74 74 74 74 74 73 74 74 74 74 74 74 74 75 74 74 74 74 74 74
62 64 61 60 58 60 59 60 56 54 59 62 65 65 63 63 67 68 69 64 60 56 58 58 58 55 54 53 57 59 60 61 62 62 63 63 63 62 63 63 64 67 68 69 70 71 69 73 75 74 75 74 74 74 74 75 74 75 75 75 75 75 74 75 74 73 73 73 73 73 73 74 75 74 74 74 74 73 74 74 74 73 73 74 74 74 74 74 74 74 74 74 74 74 74 73 73
63 62 62 54 58 57 60 61 61 61 61 63 65 65 63 64 65 66 64 62 62 59 59 58 59 58 56 57 59 60 61 61 61 61 61 62 62 62 62 63 64 66 68 69 70 72 73 73 74 74 74 74 74 74 73 74 74 74 75 76 75 75 75 75 75 75 74 74 73 74 75 76 75 74 74 75 75 74 74 74 74 74 74 74 74 75 75 74 74 74 74 74 74 74 74 73 73
61 58 55 55 59 60 63 63 64 62 61 63 65 65 65 65 65 65 62 60 60 59 59 58 58 57 57 58 59 60 60 61 61 61 61 61 61 61 62 64 65 65 67 69 70 70 72 73 74 73 74 74 74 73 73 74 74 75 76 76 76 75 75 75 75 76 74 73 74 74 75 74 74 74 75 74 74 74 74 75 74 74 74 74 74 75 75 74 73 74 74 73 73 73 72 72 72
62 64 57 58 61 61 64 64 64 64 64 64 64 65 64 64 63 64 62 60 59 59 56 58 58 57 57 58 59 59 59 60 61 61 59 60 60 60 61 62 63 66 65 67 69 71 71 71 72 75 74 74 75 74 74 75 75 75 75 75 75 76 76 76 77 76 75 73 75 74 74 73 74 75 75 75 75 74 74 75 74 74 74 74 74 74 74 75 74 75 75 75 75 74 70 69 69
60 59 56 57 59 59 64 63 65 65 67 64 65 65 65 64 64 65 63 58 59 59 56 57 58 57 57 56 57 57 57 57 58 58 58 59 59 59 60 61 63 64 64 66 69 70 71 72 72 74 75 73 74 75 74 74 75 75 75 76 76 76 76 75 74 75 76 75 75 77 75 75 75 75 76 76 75 75 74 73 73 73 74 74 74 74 74 75 73 74 74 76 72 71 69 69 68
59 57 57 55 53 54 63 65 66 63 66 66 65 64 65 67 65 65 62 59 56 56 54 56 58 58 57 56 56 56 56 56 57 57 58 58 58 59 59 60 61 62 64 66 68 70 70 71 72 73 73 73 73 74 74 74 75 74 75 76 74 74 75 77 76 76 76 76 76 75 75 76 76 75 74 75 75 75 75 74 74 74 74 74 75 74 72 73 73 72 72 73 70 71 69 69 67
57 57 59 53 49 53 56 61 65 65 65 65 64 65 66 65 65 66 64 64 59 56 54 54 58 57 56 56 56 55 54 55 55 55 57 56 57 58 58 59 60 61 62 66 69 70 70 71 72 72 72 73 73 73 72 75 74 72 75 75 75 74 73 74 74 76 75 75 74 75 74 74 75 76 75 74 75 76 75 75 74 74 74 73 75 72 73 73 73 71 71 70 72 71 70 70 69
57 56 54 52 47 46 49 57 67 65 66 65 66 67 65 65 62 66 65 66 62 58 56 56 57 57 56 56 55 53 54 54 54 54 55 54 55 56 56 58 59 61 64 67 67 68 70 69 72 72 73 73 74 74 74 72 73 73 74 75 73 76 74 73 75 71 73 76 75 76 76 77 75 75 73 75 74 74 73 73 73 72 73 73 75 72 72 72 72 73 73 72 70 71 69 70 70
54 60 50 47 46 45 45 57 60 63 66 67 66 65 64 65 65 64 65 64 60 58 56 57 57 57 56 55 53 54 54 53 53 53 53 54 54 54 55 57 59 60 64 65 67 66 68 70 71 72 73 74 74 73 73 72 73 73 72 72 72 73 72 70 71 73 73 72 74 74 75 77 77 74 74 74 74 75 74 73 71 71 73 74 74 72 74 73 73 73 74 73 72 70 69 70 69
54 53 49 45 42 45 43 52 64 64 66 67 66 64 65 67 66 64 67 65 63 58 56 56 57 56 56 54 54 54 53 53 54 52 53 53 54 55 56 57 58 58 63 64 64 67 68 69 68 70 71 72 72 70 73 72 73 73 73 73 72 73 71 72 72 71 71 72 73 77 77 79 76 75 74 74 74 75 73 71 71 72 72 74 73 73 73 74 74 73 74 74 70 70 69 69 69
52 52 47 43 44 45 44 50 63 63 64 66 64 64 64 63 63 60 65 64 62 60 56 56 55 55 55 53 54 54 53 53 53 52 53 53 55 55 56 56 56 58 61 62 64 67 70 68 67 70 70 72 72 71 73 73 74 73 73 72 73 73 71 72 70 70 70 71 74 77 77 75 74 74 72 71 73 73 74 73 72 73 71 70 71 72 74 74 74 73 75 73 71 70 69 68 67
49 49 44 42 44 46 46 53 57 60 63 67 65 64 65 65 63 62 65 66 64 61 55 55 54 54 54 54 54 55 54 54 55 52 52 53 55 55 56 57 55 58 59 61 65 68 68 66 67 68 69 70 72 72 74 72 73 73 74 73 71 72 73 70 70 71 72 73 74 77 78 76 76 73 75 74 72 71 71 71 71 72 72 72 73 73 72 74 73 75 75 74 72 71 70 69 68
46 45 42 41 44 48 47 52 56 59 62 65 65 64 62 63 62 64 66 64 63 61 56 55 54 54 53 55 54 56 54 55 54 53 53 55 55 54 54 55 56 58 58 61 65 65 65 66 68 69 69 72 72 72 72 70 70 71 72 72 72 70 72 71 70 73 73 75 77 77 77 77 76 75 75 74 74 74 73 72 72 73 74 74 74 75 74 73 73 74 74 74 72 71 70 69 68
46 44 41 42 43 48 48 53 54 60 62 64 62 56 56 62 62 65 66 64 63 61 57 55 54 54 54 55 55 55 55 55 54 53 54 55 55 53 54 54 57 57 58 61 62 63 65 66 67 66 68 70 71 70 72 69 70 70 72 71 72 72 71 70 70 72 73 74 76 77 77 78 77 76 76 76 77 75 74 73 73 73 75 75 75 76 73 73 71 73 71 72 70 70 69 69 66
44 43 42 40 42 50 49 49 54 62 61 61 61 56 58 62 63 67 66 66 60 60 56 55 55 54 54 55 54 54 55 57 54 54 54 55 54 54 54 54 57 58 60 60 60 63 64 66 65 65 68 70 70 71 70 70 70 69 70 71 71 71 72 70 70 72 75 74 74 75 76 76 78 77 77 76 74 73 72 72 75 73 75 75 73 75 72 72 72 72 71 70 70 68 68 69 68
45 42 40 39 40 49 50 51 52 60 61 62 59 56 59 60 62 67 68 68 66 60 58 55 55 55 53 54 54 53 55 56 54 53 53 54 53 53 53 55 55 58 60 61 59 62 62 65 66 66 67 69 71 72 71 71 70 70 70 70 71 73 70 72 75 75 73 73 74 76 77 78 77 79 77 77 73 71 69 71 72 76 76 74 74 74 74 72 72 71 71 69 69 68 70 69 70
43 41 38 38 39 43 50 49 55 62 58 62 58 54 58 59 62 66 68 64 63 63 60 58 56 55 54 54 53 53 55 55 54 53 54 55 54 53 54 56 56 59 59 61 60 63 63 64 65 65 65 67 71 70 71 72 72 72 72 70 70 72 69 72 76 77 74 74 74 75 77 77 78 78 78 78 76 72 70 71 73 75 76 74 74 74 73 71 73 69 72 71 71 71 67 67 69
41 41 39 38 38 44 46 55 60 60 56 59 57 58 59 59 65 65 64 65 61 61 59 60 58 57 57 55 53 53 55 54 54 55 54 55 54 55 54 60 57 59 61 60 62 63 62 64 63 64 65 65 69 71 72 72 72 73 71 71 73 71 72 76 74 74 74 73 74 76 76 77 78 79 79 77 77 72 72 72 74 75 75 75 74 73 72 70 71 72 72 73 72 72 67 68 68
37 40 39 37 39 42 52 49 57 60 63 60 58 61 61 58 62 64 65 66 62 60 58 60 59 58 58 55 53 53 54 54 53 55 55 56 55 55 55 58 58 59 59 60 62 65 64 64 64 66 65 66 69 72 73 71 73 73 72 72 72 72 74 77 77 73 74 75 74 75 77 76 77 78 79 79 77 73 73 74 74 74 74 75 75 74 72 72 72 72 71 74 74 74 69 69 69
35 38 38 36 38 45 47 51 54 60 57 52 57 57 58 58 56 61 65 66 63 61 63 60 61 59 59 58 54 53 53 52 54 55 56 56 56 55 56 58 58 59 60 62 65 65 66 66 66 68 68 66 69 71 71 69 70 69 69 70 70 72 72 76 74 74 74 75 74 75 77 76 77 79 78 78 78 76 74 74 74 74 74 75 74 72 72 73 74 75 73 71 73 72 71 70 70
35 37 38 36 35 44 47 50 50 61 58 51 51 53 56 57 57 63 63 63 62 64 64 59 60 61 59 57 54 53 54 52 54 55 57 57 56 56 58 59 59 60 62 64 65 65 66 67 68 68 68 69 70 70 69 67 68 69 70 68 68 70 72 72 70 73 76 76 74 75 76 77 78 78 77 77 76 76 76 74 75 74 74 74 74 73 73 73 76 75 75 75 73 72 69 70 69
35 33 36 36 33 38 51 52 48 60 59 46 48 51 55 56 57 61 64 64 62 60 61 61 59 59 61 59 56 55 55 53 54 55 56 56 57 57 58 59 62 60 63 65 65 66 67 66 67 68 68 69 69 69 68 68 69 67 68 69 66 67 71 70 73 70 73 72 76 76 76 76 78 78 77 78 77 76 76 74 75 75 74 75 75 75 76 74 75 74 74 74 74 70 70 67 66
35 32 34 31 32 32 34 36 40 48 50 50 47 48 51 55 56 52 55 58 60 61 61 58 61 61 61 60 57 56 54 54 54 54 56 55 57 57 60 59 60 61 62 64 66 66 67 67 69 70 68 69 69 69 69 69 69 69 68 68 66 66 69 69 69 70 70 71 73 76 76 78 78 77 77 77 77 76 76 75 75 75 75 75 74 74 74 74 76 75 74 73 70 72 70 70 70
35 34 34 34 34 30 33 35 39 42 48 49 48 45 51 53 50 47 47 51 58 58 63 64 63 61 62 61 60 57 55 56 55 55 54 54 58 58 60 59 60 61 63 63 64 66 67 69 70 70 70 70 70 70 71 70 69 71 70 70 69 69 69 71 72 72 72 73 74 74 78 78 76 75 75 75 76 77 76 75 74 75 75 75 75 74 76 77 77 75 73 73 73 67 67 66 69
35 34 33 34 32 30 32 35 38 40 47 49 44 53 56 49 48 47 47 50 57 60 64 66 66 66 62 62 63 61 57 57 56 55 55 55 58 58 60 61 60 60 61 63 63 64 63 67 69 71 70 70 71 71 71 72 72 72 71 71 71 72 70 71 72 71 72 73 72 75 74 76 76 75 75 75 75 77 78 76 75 76 76 76 76 77 76 73 74 74 75 72 74 68 64 64 67
32 34 34 34 33 30 31 35 36 33 37 41 36 45 49 54 46 50 52 51 55 59 63 65 63 64 65 61 62 63 61 57 58 56 56 55 58 59 61 61 59 60 61 62 62 63 65 67 71 72 71 70 70 72 72 72 73 72 71 71 70 70 70 69 69 69 69 69 68 70 73 73 73 75 75 75 74 76 78 78 77 75 76 77 75 73 74 74 75 72 72 72 70 72 70 66 64
30 31 35 34 33 32 30 29 31 35 38 38 36 40 45 49 48 52 58 55 54 62 61 65 63 65 64 63 63 61 61 58 57 57 56 54 58 59 61 62 60 60 61 62 62 63 65 68 71 72 71 71 71 73 73 73 74 72 71 69 68 69 69 68 71 70 69 69 70 72 72 74 74 73 74 75 75 76 77 78 79 77 75 76 76 76 75 72 71 72 71 73 72 72 73 69 66
29 30 33 35 33 33 31 31 30 31 40 41 40 38 43 48 51 57 62 59 59 57 60 63 64 65 62 63 64 65 62 60 58 57 57 57 58 59 61 62 60 59 61 61 61 63 67 70 71 72 72 71 71 73 73 74 73 72 72 70 68 68 67 68 71 71 72 71 71 72 72 72 74 75 73 76 75 74 76 76 77 77 75 74 75 74 72 70 72 74 74 74 75 74 73 71 68
29 28 29 33 34 33 32 31 31 31 30 31 31 35 42 43 54 58 61 58 58 58 60 61 63 63 64 65 64 65 61 62 59 57 58 56 58 58 61 61 60 58 60 61 62 63 66 69 72 73 72 72 71 74 74 73 74 72 72 70 69 68 68 69 70 71 72 73 73 73 73 74 74 76 74 74 76 74 74 75 76 77 76 75 74 74 72 73 73 74 74 74 73 73 73 73 72
28 31 31 31 31 32 32 30 30 32 34 33 32 31 38 47 54 55 59 60 58 57 61 63 64 64 64 64 65 67 65 62 61 59 59 58 58 59 60 60 58 57 59 63 63 63 66 69 72 73 72 73 72 75 75 74 73 73 72 71 71 69 69 69 69 70 72 73 73 76 76 75 73 72 75 75 76 74 74 75 73 74 74 72 72 73 73 74 75 76 75 72 73 72 73 71 73
24 29 29 28 26 28 31 30 32 32 33 32 31 32 34 44 53 52 56 52 55 61 62 64 65 67 68 67 67 67 65 61 61 61 60 59 60 60 60 59 60 59 59 61 61 63 65 68 72 73 73 73 73 75 74 74 72 72 72 72 72 71 71 70 70 71 72 73 73 74 75 75 74 72 73 74 74 75 75 76 73 71 72 73 73 74 73 71 72 73 73 74 73 73 72 71 71
25 26 28 26 28 30 32 30 32 31 31 32 31 31 32 41 51 55 52 56 53 53 55 57 63 64 67 67 67 64 61 64 66 62 61 61 61 61 60 60 60 59 59 60 60 62 65 68 71 73 74 74 73 74 74 73 71 72 73 73 72 72 72 70 71 72 71 73 72 73 75 74 75 73 74 72 73 72 75 75 75 74 74 74 72 74 73 71 71 72 74 74 75 74 74 73 73
28 27 27 22 24 25 25 30 27 28 30 31 32 30 35 44 48 49 50 50 51 52 52 52 53 55 64 66 66 65 64 63 63 66 65 62 61 61 60 61 63 62 61 62 61 61 64 68 72 73 74 73 74 74 74 73 72 72 72 72 73 73 72 72 72 71 71 72 72 73 75 75 74 75 74 74 72 73 74 76 75 76 75 76 76 75 76 75 76 72 75 73 74 74 74 73 72
25 26 24 22 21 22 25 27 28 28 27 28 29 27 40 48 47 49 49 50 51 52 53 53 54 56 60 63 65 67 65 64 64 66 64 65 64 63 62 62 62 62 61 61 62 63 65 67 72 73 74 74 75 75 74 74 73 72 72 72 72 73 73 72 71 69 69 70 71 73 73 72 74 73 73 74 73 72 73 74 76 76 78 78 76 77 78 75 75 74 75 75 73 74 74 74 73
20 21 19 21 24 20 24 23 23 23 27 29 27 25 44 42 46 47 48 50 51 51 52 54 55 56 57 61 67 67 67 66 65 65 63 64 66 65 63 64 64 64 62 61 62 65 66 68 72 74 74 75 75 75 75 73 72 72 72 72 72 72 72 71 70 69 69 69 68 71 73 72 72 73 73 73 75 74 74 76 75 76 77 78 77 78 76 77 77 76 76 75 75 74 74 73 71
18 18 19 18 20 23 17 18 20 21 21 23 26 36 40 43 48 47 48 47 49 50 51 53 54 55 56 56 65 65 67 69 66 66 66 66 66 66 65 64 65 65 66 64 64 65 65 68 72 74 74 74 74 75 75 74 73 72 74 73 72 72 73 71 71 71 70 69 70 69 72 73 73 73 73 73 72 73 74 74 75 75 77 76 77 78 78 76 77 76 76 76 76 74 74 73 73
18 18 19 19 20 17 18 20 16 19 20 26 32 41 44 46 45 45 46 47 47 48 50 51 52 53 56 56 56 62 67 65 64 66 66 67 65 66 67 65 64 64 65 65 67 66 67 69 71 74 74 74 74 76 74 74 74 73 73 73 72 72 71 70 68 70 66 69 70 70 69 70 73 74 72 72 72 74 74 74 74 73 75 78 78 78 77 78 79 77 77 78 75 73 74 75 72
17 16 17 16 22 21 26 16 22 17 14 20 34 39 41 42 47 46 45 45 46 48 49 50 53 54 55 58 58 59 58 60 63 65 69 68 68 67 66 65 64 65 65 66 68 67 68 69 71 73 73 73 74 74 73 74 74 73 73 74 73 72 70 69 67 67 68 68 69 70 69 69 69 71 72 69 72 72 74 74 73 73 74 74 76 75 76 77 79 76 77 79 75 77 76 76 74
18 16 21 16 20 23 26 27 19 12 12 19 36 38 39 43 44 43 44 43 45 48 50 50 51 53 55 57 59 60 60 60 62 66 68 69 68 68 69 70 64 64 66 66 67 66 67 69 70 71 70 72 72 71 72 73 74 72 72 73 72 71 70 69 67 68 69 67 66 67 67 67 68 70 71 72 72 71 72 73 74 72 73 73 74 75 77 77 77 76 76 77 76 77 77 76 77
18 20 18 19 21 18 23 25 28 24 19 16 33 35 37 44 47 47 47 46 47 47 48 49 50 53 54 57 58 60 60 61 61 61 63 64 68 70 67 69 65 63 64 64 65 65 66 68 69 69 68 71 72 70 72 72 72 71 70 74 74 73 72 69 69 69 67 67 67 65 67 64 67 66 69 71 71 70 71 71 70 69 68 70 72 73 73 75 76 76 75 73 74 76 75 76 74
15 17 18 18 20 19 17 17 20 19 22 19 26 33 43 45 47 48 48 48 48 48 48 50 51 53 54 57 58 59 60 61 62 62 64 65 66 66 69 69 67 65 67 66 64 67 67 67 67 69 69 70 69 68 70 73 72 72 72 73 73 73 70 68 67 67 68 68 68 68 65 65 67 66 67 68 70 71 71 70 69 70 67 70 72 72 72 74 75 75 75 75 75 76 75 74 74
17 13 15 17 18 16 21 23 16 14 17 20 22 29 44 45 47 49 49 48 48 48 49 49 51 52 54 56 58 59 59 61 61 62 63 64 68 68 67 68 70 69 70 69 70 65 66 68 67 68 68 67 67 66 69 73 73 72 71 73 72 73 72 69 66 66 67 67 68 69 68 66 64 67 67 65 69 69 70 70 69 70 70 68 72 73 70 71 73 74 73 70 72 76 78 75 75